Home   Weather   Güssing   Past weeks

Flag for Austria Past Weather in Güssing, Burgenland, Austria — Yesterday and Last 2 Weeks

Now
35 °F

Chilly.


Feels Like: 35 °F
Forecast: 24 / 36 °F
Wind: 1 mph from Southwest

Location: Murska Sobota

Current Time: Dec 3, 2016 at 1:26:50 am

Latest Report: Dec 3, 2016 at 12:00 am


Visibility: N/A

Pressure: 30.22 "Hg

Humidity: 72%

Dew Point: 26 °F

Location of GüssingLocation

Past Weather in Güssing — Graph

°F

Güssing Temperature Yesterday

Maximum temperature yesterday: 50 °F (at 1:00 pm)
Minimum temperature yesterday: 24 °F (at 8:00 am)
Average temperature yesterday: 34 °F

High & Low Weather Summary for the Past Weeks

 TemperatureHumidityPressure
High65 °F (Nov 23, 2:00 pm)99% (Nov 25, 7:00 am)30.57 "Hg (Nov 25, 7:00 am)
Low22 °F (Nov 30, 1:00 am)38% (Nov 28, 3:00 pm)29.83 "Hg (Nov 19, 2:00 pm)
Average44 °F82%30.12 "Hg
* Reported Nov 18 12:00 am — Dec 3 12:00 am, Güssing, Weather by CustomWeather, © 2016

Note: Actual official high and low records may vary slightly from our data, if they occured in-between our weather recording intervals... More about our weather records

Advertising

Güssing Weather History for the Previous 24 Hours

Scroll right to see more
 ConditionsComfort  
Time TempWeatherWind HumidityBarometerVisibility
12:00 am
Sat, Dec 3
35 °FChilly.1 mph72%30.22 "HgN/A
11:00 pm
Fri, Dec 2
36 °FChilly.2 mph73%30.21 "HgN/A
10:00 pm38 °FChilly.1 mph61%30.19 "HgN/A
9:00 pm38 °FChilly.1 mph63%30.17 "HgN/A
8:00 pm39 °FChilly.1 mph57%30.15 "HgN/A
7:00 pm41 °FPassing clouds.No wind53%30.12 "Hg19 mi
6:00 pm42 °FQuite cool.7 mph51%30.09 "HgN/A
5:00 pm42 °FQuite cool.7 mph54%30.06 "HgN/A
4:00 pm42 °FQuite cool.7 mph61%30.03 "HgN/A
3:00 pm42 °FQuite cool.6 mph68%30.01 "HgN/A
2:00 pm43 °FOvercast.8 mph68%29.96 "Hg31 mi
1:00 pm50 °FScattered clouds.1 mph56%29.92 "Hg31 mi
12:00 pm41 °FQuite cool.1 mph69%29.92 "HgN/A
11:00 am38 °FChilly.No wind73%29.92 "HgN/A
10:00 am32 °FChilly.2 mph82%29.92 "HgN/A
9:00 am28 °FChilly.2 mph89%29.91 "HgN/A
8:00 am24 °FFog.1 mph91%29.91 "Hg5 mi
7:00 am25 °FFog.2 mph94%29.89 "Hg5 mi
6:00 am25 °FChilly.2 mph91%29.89 "HgN/A
5:00 am26 °FChilly.1 mph87%29.90 "HgN/A
4:00 am26 °FChilly.2 mph89%29.90 "HgN/A
3:00 am26 °FChilly.2 mph90%29.93 "HgN/A
2:00 am25 °FChilly.1 mph92%29.94 "HgN/A
1:00 am25 °FCold.No wind93%29.96 "HgN/A
Weather by CustomWeather, © 2016

See weather overviewHow to use our weather pages